Regional Weather Roundup
Issued by NWS

Home | Current Version | Previous Version | Graphics & Text | Print | Product List | Glossary On
Versions: 1 2 3 4 5 6 7 8 9 10 11 12 13 14 15 16 17 18 19 20 21 22 23 24 25 26 27 28 29 30 31 32 33 34 35 36 37 38 39 40 41 42 43 44 45 46 47 48 49 50
000
ASUS45 KSLC 240910
RWRUT

UTAH REGIONAL WEATHER ROUNDUP
NATIONAL WEATHER SERVICE SALT LAKE CITY UT
300 AM MDT SUN JUL 24 2016

UTZ001>011-023>025-241000-

NORTHERN UTAH

CITY           SKY/WX    TMP DP  RH WIND       PRES   REMARKS
BRIGHAM CITY     N/A     69  29  22 CALM      30.09S
HILL AFB       CLEAR     65  29  25 SE7       30.09F
LOGAN          CLEAR     54  43  66 NW3       30.12F
OGDEN          CLEAR     69  38  32 N8        30.07S
PROVO AIRPORT  CLEAR     63  45  51 CALM      30.08R
SALT LAKE CITY CLEAR     66  44  45 SW3       30.06R
VERNAL         LGT RAIN  65  38  36 W7        30.12S
WENDOVER       CLEAR     72  30  21 SW3       30.10S
HEBER CITY     CLEAR     50  37  62 SE3       30.17S

$$

UTZ012>022-026-027-241000-

SOUTHERN/CENTRAL UTAH

CITY           SKY/WX    TMP DP  RH WIND       PRES   REMARKS
BLANDING       MOCLDY    71  46  41 N8        30.24R
BRYCE CANYON   CLEAR     55  33  43 W10       30.30F
CEDAR CITY     CLEAR     70  32  24 SE7       30.12F
DELTA          CLEAR     72  23  16 N9        30.06S
MILFORD        CLEAR     68  23  18 N3        30.09S
MOAB/CYNLANDS  PTCLDY    78  38  23 E8        30.00F
PRICE          PTCLDY    70  26  19 W3        30.13F
ST GEORGE      SUNNY     86  39  19 NE6       29.89S
KANAB          CLEAR     66  36  32 N5        30.11S

$$

REGIONAL REPORTS     COLORADO/ARIZONA

CITY           SKY/WX    TMP DP  RH WIND       PRES   REMARKS
CRAIG, CO      CLOUDY    70  35  27 VRB5      30.21S
GRAND JUNCTION CLOUDY    76  42  29 W7        30.07R
RIFLE          CLOUDY    66  42  41 E7        30.15F
MONTROSE       CLOUDY    63  45  51 S7        30.18S
CORTEZ         CLOUDY    60  46  59 S7        30.20R
PAGE, AZ       CLEAR     86  37  17 SW5       29.99S
GRAND CANYON   CLEAR     58  51  78 CALM      30.25F
KINGMAN        CLEAR     82  47  29 CALM      29.96F
FLAGSTAFF      CLEAR     57  48  72 NE3       30.27R

$$

REGIONAL REPORTS    NEVADA/IDAHO/WYOMING

CITY           SKY/WX    TMP DP  RH WIND       PRES   REMARKS
LAS VEGAS, NV  CLEAR     96  45  17 S7        29.76F HX  92
ELY            CLEAR     63  17  17 NE10      30.21S
ELKO           CLEAR     61  28  28 CALM      30.17S
POCATELLO, ID  CLEAR     64  24  21 SW9       30.14R
BURLEY         CLEAR     51  37  58 S6        30.11R
EVANSTON, WY   CLOUDY    59  23  25 NE6       30.28F
ROCK SPRINGS   CLOUDY    60  21  22 W5        30.25F
KEMMERER         N/A     50  28  43 NW6       30.30S

$$



USA.gov is the U.S. government's official web portal to all federal, state and local government web resources and services.